Time,TemperatureF,DewpointF,PressureIn,WindDirection,WindDirectionDegrees,WindSpeedMPH,WindSpeedGustMPH,Humidity,HourlyPrecipIn,Conditions,Clouds,dailyrainin,SoftwareType,DateUTC
2013-05-11 00:01:00,76.0,42.0,-100.00,SSE,155,6.0,10.0,29,-99.99,,,-99.99,,2013-05-11 07:01:00,
2013-05-11 01:01:00,73.0,44.0,-100.00,NNE,15,7.0,10.0,35,-99.99,,,-99.99,,2013-05-11 08:01:00,
2013-05-11 01:12:00,73.0,44.0,-100.00,NNE,15,7.0,10.0,35,-99.99,,,-99.99,,2013-05-11 08:12:00,
2013-05-11 02:01:00,71.0,44.0,-100.00,South,175,9.0,13.0,37,-99.99,,,-99.99,,2013-05-11 09:01:00,
2013-05-11 03:03:00,70.0,43.0,-100.00,SSE,155,8.0,12.0,37,-99.99,,,-99.99,,2013-05-11 10:03:00,
2013-05-11 03:12:00,70.0,43.0,-100.00,SSE,155,8.0,12.0,37,-99.99,,,-99.99,,2013-05-11 10:12:00,
2013-05-11 04:02:00,69.0,43.0,-100.00,SSE,150,9.0,13.0,38,-99.99,,,-99.99,,2013-05-11 11:02:00,
2013-05-11 05:01:00,67.0,42.0,-100.00,SSE,150,9.0,12.0,40,-99.99,,,-99.99,,2013-05-11 12:01:00,
2013-05-11 05:11:00,67.0,42.0,-100.00,SSE,150,9.0,12.0,40,-99.99,,,-99.99,,2013-05-11 12:11:00,
2013-05-11 06:01:00,66.0,42.0,-100.00,SSE,160,5.0,9.0,41,-99.99,,,-99.99,,2013-05-11 13:01:00,
2013-05-11 06:10:00,66.0,42.0,-100.00,SSE,150,3.0,9.0,41,-99.99,,,-99.99,,2013-05-11 13:10:00,
2013-05-11 07:02:00,66.0,42.0,-100.00,SSE,150,3.0,9.0,41,-99.99,,,-99.99,,2013-05-11 14:02:00,
2013-05-11 08:01:00,65.0,43.0,-100.00,North,5,6.0,12.0,44,-99.99,,,-99.99,,2013-05-11 15:01:00,
2013-05-11 08:10:00,68.0,44.0,-100.00,North,5,9.0,14.0,41,-99.99,,,-99.99,,2013-05-11 15:10:00,
2013-05-11 09:00:00,70.0,43.0,-100.00,SSE,165,13.0,17.0,37,-99.99,,,-99.99,,2013-05-11 16:00:00,
2013-05-11 09:02:00,68.0,44.0,-100.00,North,5,9.0,14.0,41,-99.99,,,-99.99,,2013-05-11 16:02:00,
2013-05-11 10:10:00,72.0,45.0,-100.00,South,170,12.0,17.0,37,-99.99,,,-99.99,,2013-05-11 17:10:00,
2013-05-11 11:01:00,72.0,45.0,-100.00,South,170,12.0,17.0,37,-99.99,,,-99.99,,2013-05-11 18:01:00,
2013-05-11 11:20:00,77.0,44.0,-100.00,North,5,9.0,15.0,30,-99.99,,,-99.99,,2013-05-11 18:20:00,
2013-05-11 12:02:00,77.0,44.0,-100.00,North,5,9.0,15.0,30,-99.99,,,-99.99,,2013-05-11 19:02:00,
2013-05-11 12:10:00,82.0,45.0,-100.00,NNE,25,6.0,12.0,27,-99.99,,,-99.99,,2013-05-11 19:10:00,
2013-05-11 12:11:00,77.0,44.0,-100.00,North,5,9.0,15.0,30,-99.99,,,-99.99,,2013-05-11 19:11:00,
2013-05-11 13:01:00,82.0,45.0,-100.00,NNE,25,6.0,12.0,27,-99.99,,,-99.99,,2013-05-11 20:01:00,
2013-05-11 14:02:00,85.0,40.0,-100.00,ENE,70,3.0,9.0,20,-99.99,,,-99.99,,2013-05-11 21:02:00,
2013-05-11 14:11:00,85.0,40.0,-100.00,ENE,70,3.0,9.0,20,-99.99,,,-99.99,,2013-05-11 21:11:00,